Theta_e
301 301 303 306 305 304 304 304 304 305 305 305 304 304 304 304 304 306 304 303 301 303 302 302 302 303 303 304 305 304 305 304 306 310 312 315 318 318 323 320 323 324 326 326 328 335 337 318 320 331 322 321 321 323
302 302 303 305 304 304 304 304 304 304 305 305 305 304 305 304 304 305 304 302 301 302 302 301 301 301 302 303 303 304 305 304 305 306 307 311 315 314 319 324 316 322 318 327 330 327 317 316 315 314 315 317 319 321
302 303 304 305 304 304 304 304 304 304 304 305 305 305 305 305 304 305 305 301 301 302 302 301 302 301 301 301 302 304 304 303 303 303 306 307 313 311 316 317 314 315 313 325 326 320 317 315 313 311 314 312 314 317
303 303 307 305 305 305 305 305 304 304 304 304 304 305 305 305 305 305 305 302 301 301 304 303 300 302 301 302 302 302 303 302 303 303 306 306 308 308 309 310 310 312 313 321 318 314 320 318 312 311 312 311 314 316
303 304 308 306 305 305 305 305 305 304 305 305 304 304 304 305 304 305 305 305 302 302 304 305 303 302 301 301 302 302 303 304 305 306 306 306 306 306 307 307 311 310 313 317 318 311 311 313 310 310 310 311 313 315
304 305 309 308 306 306 306 305 305 305 305 305 304 304 305 305 305 306 305 303 304 301 302 305 304 305 304 302 302 303 303 303 304 304 306 305 303 306 306 307 309 310 310 309 309 307 308 309 309 309 309 311 312 315
304 306 311 310 309 306 306 306 306 305 305 306 305 305 306 306 306 305 306 303 303 302 304 306 306 304 303 305 302 302 301 303 303 305 305 306 306 306 306 305 306 307 309 310 308 307 308 308 308 308 309 311 311 311
304 305 311 311 310 308 307 307 308 306 306 306 305 306 306 306 306 305 304 303 302 303 303 305 306 306 304 309 310 302 304 303 304 305 304 305 305 306 307 307 307 306 306 306 306 306 307 307 308 309 310 310 310 311
304 306 311 312 310 309 308 310 309 307 307 306 306 306 306 306 305 306 304 303 302 302 304 305 308 309 305 307 309 309 306 308 304 307 306 306 306 307 306 308 307 307 306 306 306 306 306 307 308 309 310 310 310 311
304 305 311 312 310 310 311 312 310 308 307 306 306 307 309 306 305 304 302 303 302 301 300 303 302 307 305 305 308 308 310 311 312 310 306 307 308 308 307 308 310 309 308 307 307 307 307 308 309 309 310 309 309 310
304 306 311 312 311 311 313 311 309 308 309 308 309 310 307 306 305 304 304 305 303 304 301 302 303 305 304 307 308 308 310 310 314 313 312 314 313 311 309 310 311 313 314 315 313 308 307 307 308 308 309 309 309 310
304 307 312 312 312 314 313 311 309 309 308 308 308 307 306 307 308 309 308 304 304 309 304 304 305 304 305 305 307 309 311 310 315 308 311 314 310 311 313 313 314 314 316 317 316 314 308 307 307 308 308 309 309 308
305 309 313 312 314 315 313 312 309 310 309 308 309 311 313 315 319 318 318 315 313 307 305 305 308 306 307 306 308 310 311 313 307 312 313 311 312 313 314 317 318 318 317 314 315 315 312 309 308 307 308 307 308 309
305 311 313 315 316 315 313 313 310 310 310 316 320 316 322 321 322 322 321 321 319 313 309 308 309 309 309 309 307 310 309 306 313 315 314 312 310 308 310 312 314 316 314 314 314 314 313 313 313 310 307 307 308 309
306 314 315 316 314 314 315 314 313 312 313 320 320 320 322 320 318 318 317 317 315 312 309 311 311 310 310 309 306 308 316 315 312 313 312 310 308 307 307 307 309 313 314 313 312 313 313 313 314 314 313 311 310 310
310 315 315 314 314 315 313 314 313 314 316 319 319 320 320 318 315 314 313 314 311 309 310 312 315 319 320 319 319 318 314 318 318 316 314 312 310 308 307 307 306 308 310 310 312 314 313 313 314 313 313 313 314 314
313 314 315 314 316 314 313 315 315 318 319 320 322 317 318 317 318 315 313 312 309 313 320 319 317 320 320 319 318 317 319 316 315 311 309 306 306 308 307 307 306 304 306 307 306 309 316 316 315 315 316 314 313 313
313 314 315 317 317 313 315 315 318 319 321 319 321 318 315 313 313 313 311 311 312 316 318 318 316 315 316 316 315 312 312 312 315 311 305 304 304 303 304 305 304 304 304 305 306 307 308 313 320 322 321 320 322 323
316 318 318 318 317 314 320 319 317 321 318 317 315 313 314 313 311 309 310 309 310 310 311 312 312 311 312 311 310 310 310 308 310 308 305 302 302 301 302 301 302 302 303 303 305 307 308 310 313 315 320 320 321 320
319 320 319 318 316 317 321 320 316 321 322 317 315 314 313 314 312 310 310 310 310 310 310 310 309 309 308 307 306 307 306 306 304 304 303 302 300 300 301 301 300 301 302 302 302 304 308 309 311 313 316 317 319 320
319 319 319 320 319 317 317 317 317 317 317 317 315 314 314 315 314 311 310 310 309 310 310 310 310 307 305 303 301 302 302 301 302 301 301 301 300 300 299 299 299 300 301 302 301 303 306 309 310 314 314 313 312 315
318 319 320 321 319 317 319 314 317 316 317 316 315 314 315 314 313 313 310 311 310 310 310 309 307 306 303 302 300 299 299 299 299 299 298 298 299 299 299 298 298 300 300 301 302 304 304 307 305 308 309 309 307 303
320 320 321 317 320 315 319 315 319 317 321 317 314 316 316 316 314 311 311 311 310 309 308 308 307 302 301 300 299 298 298 298 298 297 296 297 298 297 297 297 298 298 298 299 301 303 303 302 304 305 305 304 304 302
319 318 318 318 317 315 319 321 316 318 318 318 320 319 316 315 314 313 312 311 311 309 308 306 303 303 301 300 299 297 296 296 296 296 295 295 296 296 296 297 297 297 297 298 300 302 302 301 300 300 300 300 300 300
315 316 314 311 317 319 320 317 316 318 320 319 320 316 316 314 312 312 312 313 312 310 309 307 302 300 301 300 299 298 296 295 295 295 294 293 294 294 295 295 296 297 296 297 298 301 301 301 300 299 299 298 298 297
316 319 317 320 320 320 320 319 316 317 318 317 316 313 311 311 311 312 312 312 312 311 309 308 304 301 300 298 298 296 295 294 295 294 293 293 294 294 295 296 297 297 295 297 298 299 299 299 299 298 298 297 297 297
317 322 320 316 320 320 319 317 315 317 317 315 314 312 310 310 310 311 309 308 310 308 307 307 304 300 299 297 296 295 294 294 293 293 293 294 294 293 293 294 295 294 296 297 297 297 297 297 297 297 297 296 296 296
319 322 323 321 321 318 319 318 316 317 316 311 311 311 310 310 311 310 310 307 307 303 301 302 298 298 297 296 295 295 295 295 295 294 293 293 294 294 294 294 294 294 295 294 295 296 296 296 296 296 296 295 295 295
323 321 321 322 319 318 320 318 317 314 312 309 310 310 310 309 308 309 308 307 302 299 299 298 297 296 295 294 294 294 294 294 295 295 294 294 294 293 293 294 294 294 295 295 294 294 294 294 294 295 295 295 295 294
321 319 322 322 320 319 319 315 314 311 309 309 309 309 309 309 308 306 304 301 301 301 300 299 297 298 298 297 296 295 294 293 293 293 294 294 293 292 293 293 294 294 294 294 294 294 294 294 294 294 294 294 294 294
319 320 321 322 322 319 314 310 309 310 311 312 309 311 312 311 303 300 300 300 303 300 299 298 298 297 298 298 298 297 296 294 293 293 292 293 293 293 293 292 292 293 293 294 294 293 293 293 293 293 294 294 294 294
321 321 321 323 321 312 312 314 315 315 314 314 314 312 312 312 309 303 300 304 305 301 297 298 299 298 297 296 295 294 293 293 293 293 293 293 293 293 293 293 293 293 293 293 293 293 293 293 293 293 293 294 294 294
321 320 320 319 314 313 315 316 317 317 316 316 317 314 311 312 307 305 305 305 302 300 299 298 297 296 296 295 294 294 293 293 293 293 293 293 293 293 293 293 292 292 293 293 293 293 293 293 294 295 295 295 295 295
Wind_Speed
35 36 37 30 27 25 23 22 20 19 19 18 17 16 15 15 13 9 8 18 11 3 8 8 7 10 7 4 3 6 5 3 5 6 4 3 3 5 2 5 3 1 2 2 1 3 5 17 3 2 6 7 9 11
35 37 36 27 25 23 22 20 19 18 17 16 15 15 14 12 12 9 6 15 20 5 5 5 16 20 15 11 7 2 5 4 4 4 4 3 3 4 5 2 5 1 4 2 5 5 7 9 13 8 7 9 12 13
36 37 33 25 23 22 20 19 18 17 16 15 13 13 12 11 9 7 7 11 9 2 7 4 3 1 8 17 17 4 2 2 2 3 3 2 3 4 5 4 5 2 3 3 4 4 3 7 9 12 8 13 13 14
37 35 31 24 21 20 19 18 17 16 15 13 12 12 11 9 7 5 7 12 7 2 2 3 3 5 5 6 16 21 8 1 5 3 2 2 3 3 3 4 4 3 6 3 4 4 4 6 11 14 11 14 15 16
37 34 31 24 21 19 18 16 15 15 13 12 10 9 8 7 4 3 6 6 12 4 1 6 17 1 2 5 13 13 14 6 3 2 1 2 2 3 2 2 4 2 2 2 2 4 3 5 13 14 15 17 17 18
36 33 30 24 21 19 17 16 15 13 13 10 7 7 6 4 2 0 1 1 11 7 0 3 4 3 5 2 5 7 6 3 3 3 2 1 1 3 3 3 5 4 2 1 2 2 7 13 13 8 15 16 16 15
37 34 30 24 21 19 17 15 14 12 11 9 6 5 3 1 2 1 2 0 5 8 0 3 4 2 5 2 2 2 4 2 3 2 2 3 3 4 3 4 5 6 4 5 7 10 14 10 12 17 14 14 16 16
37 35 30 25 21 18 17 15 14 12 10 5 2 6 8 7 3 2 2 7 13 3 1 2 3 2 6 2 2 1 2 3 3 3 1 3 2 2 6 13 8 10 10 13 14 15 16 15 14 14 13 13 15 13
39 36 29 25 21 16 15 14 13 11 5 3 6 7 4 3 2 2 7 11 6 4 1 1 2 2 7 4 2 1 0 2 1 3 2 2 3 6 10 14 15 13 12 16 16 15 16 15 16 16 14 13 13 12
40 37 30 22 19 13 12 12 10 6 4 7 3 2 2 2 13 8 2 1 2 2 1 1 1 1 3 3 2 2 2 1 1 3 3 3 6 15 18 19 18 20 21 20 21 20 16 15 14 15 14 13 12 11
41 38 29 20 15 9 9 10 7 3 4 2 1 1 4 12 2 1 0 1 0 0 1 1 1 1 1 2 2 2 2 1 1 2 1 1 3 4 9 14 18 22 22 20 19 21 21 19 16 14 15 17 14 16
41 37 27 18 9 6 11 10 5 3 4 5 6 5 4 2 2 1 1 0 1 3 2 1 1 2 2 2 2 1 1 1 2 3 1 2 4 11 14 18 20 21 24 26 21 21 18 18 18 16 17 19 22 23
42 35 25 12 4 9 14 10 0 6 7 5 2 2 2 0 6 5 6 4 4 2 3 2 1 1 2 1 2 2 2 1 5 1 2 3 12 16 17 13 15 17 19 22 23 21 18 12 14 18 15 23 26 25
41 30 16 4 7 14 15 6 5 8 2 1 1 6 3 4 4 2 5 5 2 2 2 2 1 1 0 0 2 2 1 1 4 5 5 8 17 17 16 15 19 17 19 16 13 13 15 13 10 13 19 21 22 22
39 22 1 5 14 14 9 4 6 5 2 1 2 3 2 2 3 5 4 3 0 1 2 1 1 0 1 1 1 1 3 5 3 4 4 8 14 15 16 17 16 19 17 12 8 8 11 13 11 12 14 17 21 21
31 3 3 12 14 10 4 5 2 1 1 1 3 1 2 2 7 7 6 4 1 1 2 1 1 1 4 2 3 6 3 5 4 5 8 10 13 14 16 16 16 14 14 17 16 10 12 13 12 14 17 17 19 23
13 3 10 12 11 1 1 1 0 1 2 2 2 2 1 1 3 3 5 5 0 2 2 1 5 5 4 4 5 6 5 6 6 8 8 12 14 14 14 14 15 21 18 21 22 20 18 13 13 13 12 15 15 19
2 9 8 8 10 0 1 1 1 1 4 2 3 4 4 4 4 5 6 7 1 2 3 4 4 7 5 5 4 6 4 5 4 5 8 11 14 19 19 14 21 20 21 25 24 20 21 17 5 5 8 7 2 6
15 7 3 9 6 0 1 2 3 3 3 2 2 2 2 3 7 7 7 11 6 5 3 3 5 3 3 2 5 6 5 4 4 6 7 15 19 20 21 23 22 23 20 22 24 21 20 15 12 16 8 4 3 3
4 3 9 5 3 0 2 2 2 3 3 3 3 4 3 3 5 7 10 8 6 4 6 4 3 3 3 5 5 5 5 5 5 6 8 9 17 18 21 21 20 22 22 21 19 23 24 25 29 24 17 14 4 8
1 4 4 5 2 4 3 2 3 2 3 3 1 2 1 1 4 6 5 6 5 3 3 2 4 3 6 6 7 6 7 9 6 5 4 7 16 17 19 22 24 24 21 19 14 18 22 20 22 21 20 20 20 17
3 6 2 2 2 2 3 4 3 2 2 3 3 2 1 2 3 4 2 4 3 3 3 3 4 5 6 7 10 11 10 9 10 9 12 13 9 11 14 19 20 19 21 22 21 19 20 20 26 25 25 25 29 34
3 2 1 3 2 4 1 0 1 2 3 4 2 2 1 1 2 2 2 2 0 2 4 3 4 3 4 6 10 14 15 14 13 14 16 14 12 15 16 17 18 18 18 23 23 21 21 25 26 24 25 28 31 33
3 3 2 2 2 1 0 2 2 2 3 2 2 3 2 1 1 2 2 1 1 2 3 3 3 2 5 9 8 10 13 13 14 14 18 18 16 17 18 18 18 19 21 18 20 19 21 21 24 24 25 27 28 26
2 5 3 4 1 1 2 1 2 1 2 1 2 2 2 1 2 1 1 0 0 1 1 1 3 3 3 3 7 9 11 12 11 10 16 17 17 17 17 19 18 18 22 20 18 17 16 18 20 22 23 22 20 21
4 2 2 0 1 2 2 1 1 1 2 2 2 2 1 2 2 2 2 2 1 1 1 1 3 3 4 6 6 9 11 8 10 12 14 15 16 15 14 12 14 19 23 18 16 15 16 17 18 20 20 21 22 20
2 1 1 1 1 1 1 1 1 1 2 2 3 3 2 2 2 2 1 3 2 1 0 2 4 4 5 4 4 6 9 13 9 5 13 14 14 14 14 14 15 19 17 17 17 17 17 17 17 17 17 19 20 20
1 3 2 2 2 1 0 1 1 2 2 3 3 3 3 3 2 3 2 3 3 5 8 8 8 7 6 5 5 6 10 12 12 14 10 13 15 18 19 17 18 20 16 19 16 16 15 15 14 15 15 16 16 16
1 2 2 1 2 2 1 1 1 1 4 3 3 3 3 2 2 4 4 5 9 10 9 8 7 7 7 6 6 6 8 11 15 14 13 9 14 16 18 18 18 17 16 14 16 16 15 15 15 13 13 13 12 13
1 3 2 1 2 2 2 1 2 3 2 2 2 2 2 3 4 5 4 11 9 5 5 6 7 3 4 3 3 4 6 9 10 12 9 9 11 13 13 14 16 16 15 15 15 14 15 13 13 13 13 13 13 13
2 3 2 1 1 2 2 4 4 3 2 2 1 2 3 3 5 10 7 7 8 2 5 6 5 4 5 6 7 6 6 8 9 9 8 9 10 11 12 11 12 12 12 13 12 12 13 13 13 13 14 13 12 12
3 3 2 2 1 2 2 1 1 1 2 1 2 2 2 1 3 4 8 8 9 5 3 6 6 6 7 7 8 8 7 7 9 10 11 12 12 10 10 9 11 12 12 13 10 10 11 13 13 14 13 13 12 12
2 2 2 2 3 3 3 3 2 2 2 2 2 2 1 3 3 2 4 7 12 6 6 9 8 9 10 11 9 9 9 10 12 14 14 14 13 14 11 10 11 12 11 12 11 11 12 12 12 13 13 13 13 13
Wind_Direction
337 338 337 332 330 328 324 321 318 312 307 303 302 298 296 295 294 265 261 209 191 240 276 230 246 268 267 251 283 331 299 2 352 30 8 22 3 27 328 31 2 75 173 150 213 174 154 353 63 149 356 345 343 341
339 339 339 336 336 335 330 330 327 322 315 309 305 301 296 290 291 281 221 208 211 247 281 266 266 265 242 257 288 294 315 299 357 357 4 329 6 358 353 77 2 72 18 56 6 90 84 58 72 38 14 357 352 338
339 339 341 338 338 337 335 333 332 328 323 318 310 304 304 296 294 271 222 175 171 282 282 272 270 314 247 240 225 255 220 318 47 342 329 339 6 335 10 33 316 57 5 112 181 109 159 77 41 21 8 357 348 343
340 340 341 338 338 335 336 337 337 333 330 327 319 313 311 309 301 261 214 200 154 127 288 290 295 306 288 218 204 218 245 290 318 281 311 342 339 1 351 316 299 339 317 37 86 50 131 191 8 353 350 352 352 350
342 340 341 337 336 332 334 337 337 339 337 334 330 323 319 322 319 235 237 247 189 157 256 295 309 359 344 250 229 217 228 251 300 293 278 359 296 301 281 267 246 255 0 5 102 96 346 305 330 336 345 344 346 346
340 339 339 336 334 332 333 337 334 338 347 345 341 332 334 323 307 200 125 254 217 162 58 304 335 292 338 329 228 210 193 213 263 299 331 289 323 312 314 288 243 226 227 11 116 330 310 300 306 328 332 331 340 341
342 342 338 336 332 329 330 338 339 338 341 345 342 352 6 153 160 65 34 277 174 167 240 298 310 357 343 44 69 133 167 194 246 279 254 292 292 316 265 255 239 217 234 264 293 312 307 307 310 318 317 321 326 328
343 343 338 335 331 328 330 336 343 343 341 340 1 76 90 111 119 82 73 141 137 90 21 315 295 3 357 36 339 169 182 198 205 284 258 278 314 267 252 254 314 316 303 286 283 281 278 292 295 298 309 315 324 333
343 343 339 334 331 328 332 339 345 345 2 86 131 120 90 59 54 23 144 140 93 79 360 313 312 344 0 19 328 347 232 221 65 248 232 232 222 241 275 299 304 306 294 297 297 287 288 287 289 293 300 309 320 329
343 342 340 334 328 329 338 342 349 358 105 123 133 185 95 82 132 116 81 51 45 57 70 245 339 324 355 353 325 342 349 40 299 39 318 256 256 279 287 294 297 299 295 291 284 281 277 270 274 287 294 299 300 308
342 343 340 331 329 338 348 347 0 101 135 140 137 77 125 157 148 31 90 285 57 314 189 260 257 314 181 297 334 325 346 335 272 102 234 255 261 261 265 285 289 293 290 283 278 268 262 259 261 268 280 286 288 294
342 342 338 332 337 358 348 342 349 144 150 135 129 129 150 197 177 236 348 303 203 357 184 235 271 226 261 236 241 269 307 191 242 10 269 260 254 271 295 293 290 287 287 281 270 266 256 256 252 253 258 269 275 281
342 341 336 341 66 355 344 343 153 142 132 130 135 157 201 243 27 41 352 322 352 187 215 216 237 221 204 231 290 321 338 327 307 320 291 270 314 320 324 317 297 289 299 286 272 255 247 247 255 251 254 258 270 278
340 338 336 97 11 344 336 333 167 164 154 214 65 17 35 13 13 302 317 300 3 225 201 199 245 224 130 145 7 311 43 249 5 340 12 328 338 338 344 343 350 339 332 321 276 243 240 247 251 254 239 243 258 272
339 335 147 4 344 338 337 142 155 164 178 36 54 52 50 324 272 288 301 304 11 267 158 194 214 287 148 121 114 265 351 22 54 345 300 325 330 342 349 348 345 360 353 336 320 275 258 249 246 252 243 241 249 258
340 25 17 342 343 355 104 127 149 156 147 89 68 70 348 322 7 12 4 12 127 218 191 208 287 285 52 46 12 13 42 34 9 341 335 332 332 336 333 341 354 350 359 357 352 309 275 265 256 256 263 259 255 253
342 10 335 341 350 42 190 337 273 30 64 83 79 47 17 299 298 330 352 349 211 250 20 324 35 8 346 36 20 10 17 4 344 338 341 338 340 342 341 342 343 356 360 360 354 350 346 289 274 260 259 264 250 244
310 322 321 331 341 344 268 319 297 62 66 41 82 47 51 28 343 15 354 359 352 24 18 44 32 29 32 7 353 340 326 305 300 346 355 350 350 353 354 352 355 345 355 355 356 355 357 352 5 330 272 251 228 241
320 346 356 320 323 8 204 63 9 80 59 61 28 45 37 48 25 9 11 15 36 49 72 53 54 31 358 337 322 320 330 336 321 333 347 3 359 356 358 1 2 3 356 353 357 353 354 358 5 352 16 32 123 86
332 347 354 14 49 287 111 54 34 70 58 75 80 50 41 21 347 22 27 13 23 44 43 49 32 360 336 326 326 317 333 328 347 5 3 358 360 357 1 2 1 358 3 2 354 2 357 357 2 352 23 15 9 45
1 351 354 15 39 57 68 28 70 64 109 86 77 50 85 24 44 52 37 360 45 40 56 334 354 356 6 8 14 8 20 15 24 14 342 337 351 2 4 2 359 9 9 5 358 359 7 3 358 22 34 29 21 29
341 341 3 14 59 58 86 28 80 98 87 128 135 117 128 99 74 43 39 46 52 17 344 346 355 4 26 27 18 24 16 17 19 12 7 0 3 1 358 359 1 1 6 10 1 6 8 8 18 25 33 36 39 35
355 12 69 20 119 52 46 346 97 56 130 142 118 143 120 140 132 259 81 82 46 352 335 337 5 48 58 56 49 34 19 8 7 7 1 355 357 1 356 358 3 5 358 1 8 14 19 23 27 36 41 47 53 45
6 39 39 48 56 89 151 67 81 101 114 190 189 104 66 69 33 65 80 143 123 345 10 18 29 84 54 42 32 21 9 5 7 11 10 3 1 0 358 358 0 2 360 353 7 18 30 36 43 46 49 51 52 55
44 354 46 356 34 40 59 42 54 111 86 69 95 114 99 257 107 109 152 123 294 334 347 54 80 54 53 49 31 25 21 15 10 10 10 3 355 352 357 357 4 15 2 359 3 17 33 39 40 46 49 48 50 52
73 2 66 98 59 24 33 24 51 87 117 103 91 111 128 130 143 144 190 201 222 225 287 245 152 112 81 51 37 27 7 358 9 23 12 7 6 0 356 359 358 7 5 2 3 16 33 41 45 46 40 40 40 42
85 122 101 22 91 113 133 116 119 153 143 163 153 152 171 158 136 158 204 212 219 177 247 154 141 112 112 94 74 49 37 32 22 21 17 19 25 22 15 8 1 353 5 19 31 34 33 33 36 39 45 41 37 40
108 164 221 142 134 163 206 155 173 188 163 139 155 187 184 175 137 162 166 142 157 121 108 113 122 123 113 98 75 53 38 29 29 30 32 32 29 23 17 14 10 14 19 26 28 28 29 32 33 33 38 44 44 37
192 148 185 188 144 190 216 213 196 156 135 175 192 180 177 185 133 144 145 129 134 125 120 127 126 123 110 96 80 63 46 31 24 25 24 20 16 15 11 12 13 15 17 20 28 35 41 43 41 40 40 36 37 45
178 180 200 179 215 214 131 177 155 128 138 77 88 106 109 83 50 26 60 120 120 134 149 146 149 116 85 49 66 65 55 42 34 24 16 14 7 1 8 16 18 18 22 24 24 26 31 32 32 32 33 33 27 27
147 185 189 185 248 60 48 95 98 106 117 93 101 92 97 108 73 52 110 84 39 59 115 108 103 76 54 38 20 20 54 40 30 22 13 4 4 7 9 10 10 9 12 15 17 19 14 14 13 14 19 22 26 24
185 202 198 203 129 112 151 137 132 110 99 113 84 105 140 117 83 68 37 35 333 315 98 104 91 70 52 53 69 78 55 25 11 7 5 2 357 353 354 358 2 359 1 1 3 6 9 9 11 11 8 10 8 3
147 149 112 136 146 180 188 175 156 103 103 134 115 93 72 67 90 147 217 263 284 303 127 105 88 75 78 83 77 54 47 43 34 24 17 11 11 14 8 1 2 6 8 11 13 11 6 3 3 3 5 1 358 356